contact: severine.martini@mio.osupytheas.fr, dominique.lefevre@mio.osupytheas.fr
Project:EMSO Ligure-ouest http://www.emso-fr.org/EMSO-France
Sensor Aquadopp, Serial 05974 
DOI : "https://doi.org/10.17882/97948" 
Title:EMSO Western Ligurian : Data Bathybot Aquadopp sensor - deploiement 2023-04-28
Datetime,Profondeur,Latitude,Longitude,X_East,Y_North,Z_up,Amplitude_X,Amplitude_Y,Amplitude_Z,Batterie,Sound_Speed,Heading,Pitch,Roll,Pressure,Temperature,Fluorescence,Speed,Direction
time,m,degree_north,degree_east,m.s-1,m.s-1,m.s-1,1,1,1,Volt,m.s-1,degree,degree,degree,dbar,degree_C,arbitrary units (a.u.),m.s-1,degree
2024-01-03T00:03:13,2420,42.8014,5.9826,1.087,0.013,3.258,155.0,151.0,152.0,11.8,1504.7,272.0,-0.8,0.9,2485.213,13.28,769.0,1.087,89.3
2024-01-03T00:06:13,2420,42.8014,5.9826,0.737,0.017,3.576,155.0,151.0,152.0,11.8,1504.7,272.1,-0.8,0.9,2485.197,13.28,769.0,0.737,88.7
2024-01-03T00:09:13,2420,42.8014,5.9826,1.129,0.017,3.202,155.0,152.0,152.0,11.8,1504.7,272.0,-0.8,0.9,2485.552,13.28,769.0,1.129,89.1
2024-01-03T00:12:12,2420,42.8014,5.9826,0.72,0.293,3.161,155.0,152.0,152.0,11.8,1504.7,272.0,-0.8,0.9,2485.506,13.28,765.0,0.777,67.9
2024-01-03T00:15:13,2420,42.8014,5.9826,0.889,-0.478,2.61,155.0,152.0,152.0,11.8,1504.7,271.9,-0.8,0.9,2485.33,13.28,776.0,1.009,118.3
2024-01-03T00:18:13,2420,42.8014,5.9826,0.792,0.253,3.093,155.0,151.0,152.0,11.8,1504.7,272.0,-0.8,0.9,2485.579,13.28,760.0,0.831,72.3
2024-01-03T00:21:13,2420,42.8014,5.9826,0.802,0.038,3.51,155.0,151.0,152.0,11.8,1504.7,272.0,-0.8,0.9,2485.438,13.28,772.0,0.803,87.3
2024-01-03T00:24:13,2420,42.8014,5.9826,0.387,0.029,3.087,155.0,152.0,152.0,11.8,1504.7,272.0,-0.9,0.9,2485.667,13.28,759.0,0.388,85.7
2024-01-03T00:27:12,2420,42.8014,5.9826,0.875,0.014,3.505,155.0,151.0,152.0,11.7,1504.7,271.9,-0.9,0.9,2485.773,13.28,766.0,0.875,89.1
2024-01-03T00:30:13,2420,42.8014,5.9826,0.845,0.003,3.508,155.0,151.0,152.0,11.7,1504.7,272.1,-0.8,0.9,2485.701,13.28,773.0,0.845,89.8
2024-01-03T00:33:13,2420,42.8014,5.9826,1.09,0.019,3.173,155.0,152.0,152.0,11.8,1504.7,272.0,-0.9,0.9,2484.826,13.28,765.0,1.09,89.0
2024-01-03T00:36:13,2420,42.8014,5.9826,0.757,0.273,3.126,155.0,151.0,152.0,11.8,1504.7,272.0,-0.8,0.9,2485.681,13.28,766.0,0.805,70.2
2024-01-03T00:39:13,2420,42.8014,5.9826,0.873,0.029,3.457,155.0,151.0,152.0,11.7,1504.7,272.1,-0.8,0.9,2485.149,13.28,778.0,0.873,88.1
2024-01-03T00:42:13,2420,42.8014,5.9826,0.705,0.013,2.758,155.0,151.0,152.0,11.8,1504.7,272.0,-0.8,0.9,2485.508,13.28,773.0,0.705,88.9
2024-01-03T00:45:13,2420,42.8014,5.9826,0.586,-0.228,3.342,155.0,151.0,152.0,11.8,1504.7,272.1,-0.8,0.9,2485.107,13.28,752.0,0.629,111.3
2024-01-03T00:48:13,2420,42.8014,5.9826,0.984,-0.009,3.374,155.0,151.0,152.0,11.8,1504.7,272.1,-0.8,0.9,2485.665,13.28,767.0,0.984,90.5
2024-01-03T00:51:12,2420,42.8014,5.9826,1.119,-0.243,2.772,155.0,151.0,152.0,11.8,1504.7,272.1,-0.8,0.9,2485.572,13.28,767.0,1.145,102.2
2024-01-03T00:54:13,2420,42.8014,5.9826,0.859,-0.221,3.048,155.0,152.0,152.0,11.8,1504.7,271.9,-0.8,0.9,2485.56,13.28,765.0,0.887,104.4
2024-01-03T00:57:13,2420,42.8014,5.9826,1.026,0.003,3.314,155.0,151.0,152.0,11.8,1504.7,272.0,-0.8,0.9,2485.727,13.28,778.0,1.026,89.8
2024-01-03T01:03:13,2420,42.8014,5.9826,0.61,0.049,3.741,155.0,151.0,152.0,11.7,1504.7,272.1,-0.8,0.9,2485.356,13.28,765.0,0.612,85.4
2024-01-03T01:06:13,2420,42.8014,5.9826,0.798,0.025,3.539,155.0,151.0,152.0,11.8,1504.7,272.1,-0.8,0.9,2485.217,13.28,757.0,0.798,88.2
2024-01-03T01:09:13,2420,42.8014,5.9826,0.708,0.038,3.63,155.0,152.0,152.0,11.8,1504.7,272.0,-0.9,0.9,2485.43,13.28,765.0,0.709,86.9
2024-01-03T01:12:13,2420,42.8014,5.9826,1.01,0.026,3.333,155.0,151.0,152.0,11.7,1504.7,272.0,-0.9,0.9,2485.269,13.28,778.0,1.01,88.5
2024-01-03T01:15:12,2420,42.8014,5.9826,0.793,-0.206,3.122,155.0,152.0,152.0,11.7,1504.7,272.0,-0.9,0.9,2485.512,13.28,765.0,0.819,104.6
2024-01-03T01:18:13,2420,42.8014,5.9826,1.045,0.019,3.282,155.0,151.0,152.0,11.8,1504.7,272.0,-0.8,0.9,2485.679,13.28,778.0,1.045,89.0
2024-01-03T01:21:13,2420,42.8014,5.9826,0.649,0.294,3.266,155.0,152.0,152.0,11.8,1504.7,271.9,-0.8,0.9,2485.372,13.28,775.0,0.712,65.6
2024-01-03T01:24:13,2420,42.8014,5.9826,0.798,-0.23,3.126,155.0,151.0,152.0,11.8,1504.7,272.0,-0.9,0.9,2485.221,13.28,766.0,0.83,106.1
2024-01-03T01:27:13,2420,42.8014,5.9826,0.462,-0.217,3.439,155.0,151.0,152.0,11.8,1504.7,271.9,-0.8,0.9,2485.139,13.28,768.0,0.51,115.2
2024-01-03T01:30:12,2420,42.8014,5.9826,0.773,-0.46,2.722,155.0,151.0,152.0,11.8,1504.7,272.1,-0.8,0.9,2485.502,13.28,764.0,0.9,120.8
2024-01-03T01:33:13,2420,42.8014,5.9826,1.041,0.03,3.257,155.0,151.0,152.0,11.8,1504.7,272.0,-0.9,0.9,2485.434,13.28,766.0,1.041,88.4
2024-01-03T01:36:13,2420,42.8014,5.9826,0.775,0.031,3.521,155.0,151.0,152.0,11.8,1504.7,272.0,-0.9,0.9,2485.374,13.28,766.0,0.776,87.7
2024-01-03T01:39:13,2420,42.8014,5.9826,0.865,0.027,3.449,155.0,151.0,152.0,11.8,1504.7,272.0,-0.8,0.9,2485.261,13.28,773.0,0.865,88.2
2024-01-03T01:42:13,2420,42.8014,5.9826,1.077,0.008,3.265,155.0,151.0,152.0,11.8,1504.7,272.1,-0.8,0.9,2485.227,13.28,758.0,1.077,89.6
2024-01-03T01:45:13,2420,42.8014,5.9826,0.812,0.027,3.49,155.0,151.0,152.0,11.8,1504.7,272.0,-0.8,0.9,2485.159,13.28,763.0,0.812,88.1
2024-01-03T01:48:12,2420,42.8014,5.9826,0.715,0.043,3.574,155.0,151.0,152.0,11.8,1504.7,272.0,-0.8,0.9,2485.189,13.28,767.0,0.716,86.6
2024-01-03T01:51:13,2420,42.8014,5.9826,0.578,0.143,3.062,155.0,152.0,152.0,11.8,1504.7,271.9,-0.9,0.8,2485.277,13.28,763.0,0.595,76.1
2024-01-03T01:54:13,2420,42.8014,5.9826,0.823,0.039,3.5,155.0,152.0,152.0,11.8,1504.7,272.0,-0.9,0.9,2485.245,13.28,1032.0,0.824,87.3
2024-01-03T01:57:13,2420,42.8014,5.9826,0.765,0.029,3.555,155.0,151.0,152.0,11.8,1504.7,272.0,-0.8,0.9,2485.295,13.28,768.0,0.766,87.8
2024-01-03T02:03:13,2420,42.8014,5.9826,0.682,0.523,2.816,155.0,152.0,152.0,11.8,1504.7,271.9,-0.9,0.9,2485.091,13.28,771.0,0.859,52.5
2024-01-03T02:06:13,2420,42.8014,5.9826,0.856,0.266,3.073,155.0,151.0,152.0,11.8,1504.7,272.0,-0.8,0.9,2485.46,13.28,788.0,0.896,72.7
2024-01-03T02:09:13,2420,42.8014,5.9826,0.797,0.052,3.504,155.0,152.0,152.0,11.7,1504.7,272.1,-0.8,0.9,2485.504,13.28,765.0,0.799,86.3
2024-01-03T02:12:13,2420,42.8014,5.9826,0.94,0.023,3.365,155.0,152.0,152.0,11.8,1504.7,272.0,-0.8,0.9,2485.631,13.28,773.0,0.94,88.6
2024-01-03T02:15:13,2420,42.8014,5.9826,0.752,-0.238,3.122,155.0,152.0,152.0,11.8,1504.7,272.1,-0.8,0.9,2485.695,13.28,762.0,0.789,107.6
2024-01-03T02:18:13,2420,42.8014,5.9826,0.939,0.027,3.415,155.0,151.0,152.0,11.8,1504.7,272.0,-0.8,0.9,2485.297,13.28,759.0,0.939,88.4
2024-01-03T02:21:13,2420,42.8014,5.9826,0.756,0.271,3.126,155.0,152.0,152.0,11.8,1504.7,272.0,-0.8,0.9,2485.39,13.28,768.0,0.803,70.3
2024-01-03T02:24:13,2420,42.8014,5.9826,0.669,0.263,3.276,155.0,152.0,152.0,11.8,1504.7,272.0,-0.8,0.9,2485.275,13.28,776.0,0.719,68.5
2024-01-03T02:27:13,2420,42.8014,5.9826,0.727,-0.218,3.163,155.0,152.0,152.0,11.8,1504.7,272.0,-0.8,0.9,2485.583,13.28,767.0,0.759,106.7
2024-01-03T02:30:13,2420,42.8014,5.9826,0.866,0.031,2.587,155.0,151.0,152.0,11.8,1504.7,272.0,-0.9,0.8,2485.358,13.28,755.0,0.867,88.0
2024-01-03T02:33:13,2420,42.8014,5.9826,0.736,0.047,3.619,155.0,151.0,152.0,11.8,1504.7,272.0,-0.8,0.9,2485.127,13.28,777.0,0.738,86.3
2024-01-03T02:36:13,2420,42.8014,5.9826,0.975,-0.222,2.966,155.0,152.0,152.0,11.8,1504.7,272.0,-0.9,0.9,2485.32,13.28,775.0,1.0,102.8
2024-01-03T02:39:13,2420,42.8014,5.9826,0.613,0.021,2.892,155.0,151.0,152.0,11.7,1504.7,272.0,-0.8,0.9,2485.801,13.28,761.0,0.613,88.0
2024-01-03T02:42:13,2420,42.8014,5.9826,0.725,0.268,3.199,155.0,152.0,152.0,11.8,1504.7,272.0,-0.8,0.9,2485.908,13.28,773.0,0.773,69.7
2024-01-03T02:45:13,2420,42.8014,5.9826,0.913,0.027,3.449,155.0,151.0,152.0,11.8,1504.7,272.0,-0.9,0.9,2485.356,13.28,755.0,0.913,88.3
2024-01-03T02:48:13,2420,42.8014,5.9826,0.774,0.02,3.538,155.0,152.0,152.0,11.8,1504.7,272.0,-0.9,0.9,2485.408,13.28,765.0,0.774,88.5
2024-01-03T02:51:12,2420,42.8014,5.9826,0.588,0.024,2.886,155.0,152.0,152.0,11.8,1504.7,272.0,-0.8,0.9,2485.185,13.28,786.0,0.588,87.7
2024-01-03T02:54:13,2420,42.8014,5.9826,1.084,0.03,3.279,155.0,152.0,152.0,11.7,1504.7,272.1,-0.8,0.9,2485.257,13.28,765.0,1.084,88.4
2024-01-03T02:57:13,2420,42.8014,5.9826,0.743,-0.203,3.197,155.0,152.0,152.0,11.8,1504.7,272.0,-0.9,0.9,2485.141,13.28,771.0,0.77,105.3
2024-01-03T03:03:13,2420,42.8014,5.9826,0.037,-0.181,3.854,155.0,151.0,152.0,11.7,1504.7,271.3,-0.8,0.9,2485.227,13.28,753.0,0.184,168.4
2024-01-03T03:06:13,2420,42.8014,5.9826,0.64,0.05,3.746,155.0,151.0,152.0,11.8,1504.7,271.3,-0.8,0.9,2485.719,13.28,775.0,0.642,85.5
2024-01-03T03:09:13,2420,42.8014,5.9826,0.343,-0.194,3.564,155.0,151.0,152.0,11.7,1504.7,271.5,-0.8,0.9,2485.169,13.28,759.0,0.394,119.5
2024-01-03T03:12:13,2420,42.8014,5.9826,0.453,-0.041,3.709,155.0,152.0,152.0,11.8,1504.7,271.4,-0.8,0.9,2485.297,13.28,758.0,0.455,95.2
2024-01-03T03:15:13,2420,42.8014,5.9826,0.322,0.271,3.589,155.0,152.0,152.0,11.8,1504.7,271.3,-0.8,0.9,2485.324,13.28,760.0,0.421,49.9
2024-01-03T03:18:13,2420,42.8014,5.9826,0.628,0.031,3.77,155.0,152.0,152.0,11.8,1504.7,271.3,-0.8,0.9,2485.408,13.28,778.0,0.629,87.2
2024-01-03T03:21:13,2420,42.8014,5.9826,0.177,0.611,3.207,155.0,151.0,152.0,11.8,1504.7,271.4,-0.8,0.9,2485.211,13.28,765.0,0.636,16.2
2024-01-03T03:24:13,2420,42.8014,5.9826,0.569,0.156,3.623,155.0,152.0,152.0,11.8,1504.7,271.3,-0.8,0.9,2485.558,13.28,759.0,0.59,74.7
2024-01-03T03:27:13,2420,42.8014,5.9826,0.545,0.032,3.792,155.0,152.0,152.0,11.8,1504.7,271.4,-0.8,0.9,2485.177,13.28,782.0,0.546,86.6
2024-01-03T03:30:13,2420,42.8014,5.9826,0.466,0.164,3.707,155.0,151.0,152.0,11.8,1504.7,271.4,-0.8,0.9,2485.115,13.28,771.0,0.494,70.6
2024-01-03T03:33:13,2420,42.8014,5.9826,1.098,0.272,2.788,155.0,151.0,152.0,11.8,1504.7,271.4,-0.8,0.9,2485.233,13.28,755.0,1.131,76.1
2024-01-03T03:36:13,2420,42.8014,5.9826,0.405,-0.212,2.628,155.0,151.0,152.0,11.8,1504.7,271.4,-0.8,0.9,2485.255,13.28,754.0,0.457,117.6
2024-01-03T03:39:13,2420,42.8014,5.9826,0.375,-0.203,3.593,155.0,152.0,152.0,11.8,1504.7,271.4,-0.8,0.9,2485.348,13.28,2725.0,0.426,118.4
2024-01-03T03:42:13,2420,42.8014,5.9826,0.0,0.291,3.077,155.0,152.0,152.0,11.8,1504.7,271.4,-0.9,0.9,2485.398,13.28,758.0,0.291,0.0
2024-01-03T03:45:13,2420,42.8014,5.9826,0.744,-0.209,3.183,155.0,151.0,152.0,11.8,1504.7,271.3,-0.8,0.9,2485.048,13.28,765.0,0.773,105.7
2024-01-03T03:48:13,2420,42.8014,5.9826,0.507,0.07,3.88,155.0,151.0,152.0,11.8,1504.7,271.4,-0.8,0.9,2485.338,13.28,762.0,0.512,82.1
2024-01-03T03:51:13,2420,42.8014,5.9826,0.83,-0.214,3.132,155.0,151.0,152.0,11.8,1504.7,271.3,-0.8,0.9,2485.474,13.28,766.0,0.857,104.5
2024-01-03T03:54:13,2420,42.8014,5.9826,0.358,0.062,4.02,155.0,151.0,152.0,11.8,1504.7,271.4,-0.8,0.9,2485.506,13.28,779.0,0.363,80.2
2024-01-03T03:57:13,2420,42.8014,5.9826,0.756,-0.202,3.192,155.0,151.0,152.0,11.8,1504.7,271.3,-0.8,0.9,2485.103,13.28,761.0,0.783,105.0
2024-01-03T04:03:13,2420,42.8014,5.9826,0.49,0.019,2.979,155.0,151.0,152.0,11.8,1504.7,271.4,-0.8,0.9,2485.432,13.28,774.0,0.49,87.8
2024-01-03T04:06:13,2420,42.8014,5.9826,0.808,-0.46,2.699,155.0,151.0,152.0,11.8,1504.7,271.3,-0.8,0.9,2485.434,13.28,761.0,0.93,119.7
2024-01-03T04:09:13,2420,42.8014,5.9826,0.588,0.028,3.767,155.0,151.0,152.0,11.8,1504.7,271.4,-0.8,0.9,2485.207,13.28,765.0,0.589,87.3
2024-01-03T04:12:13,2420,42.8014,5.9826,0.847,0.037,3.527,155.0,151.0,152.0,11.8,1504.7,271.4,-0.8,0.9,2485.297,13.28,763.0,0.848,87.5
2024-01-03T04:15:13,2420,42.8014,5.9826,0.48,0.044,3.898,155.0,152.0,152.0,11.8,1504.7,271.4,-0.8,0.9,2485.392,13.28,776.0,0.482,84.8
2024-01-03T04:18:13,2420,42.8014,5.9826,0.295,0.048,3.2,155.0,152.0,152.0,11.8,1504.7,271.4,-0.8,0.9,2485.131,13.28,773.0,0.299,80.8
2024-01-03T04:21:13,2420,42.8014,5.9826,0.156,-0.182,3.827,155.0,152.0,152.0,11.8,1504.7,271.5,-0.8,0.9,2484.944,13.28,763.0,0.239,139.4
2024-01-03T04:24:13,2420,42.8014,5.9826,0.848,0.034,3.531,155.0,151.0,152.0,11.8,1504.7,271.5,-0.8,0.9,2485.679,13.28,760.0,0.849,87.7
2024-01-03T04:27:13,2420,42.8014,5.9826,0.882,0.507,2.637,155.0,152.0,152.0,11.8,1504.7,271.5,-0.8,0.9,2485.4,13.28,761.0,1.017,60.1
2024-01-03T04:30:13,2420,42.8014,5.9826,0.737,0.292,3.207,155.0,151.0,152.0,11.8,1504.7,271.4,-0.9,0.9,2485.546,13.28,767.0,0.793,68.4
2024-01-03T04:33:13,2420,42.8014,5.9826,0.23,-0.193,2.837,155.0,151.0,152.0,11.8,1504.7,271.4,-0.8,0.9,2485.221,13.28,765.0,0.3,130.0
2024-01-03T04:36:13,2420,42.8014,5.9826,0.594,0.27,3.35,155.0,152.0,152.0,11.8,1504.7,271.4,-0.8,0.9,2485.237,13.28,769.0,0.652,65.6
2024-01-03T04:39:13,2420,42.8014,5.9826,0.311,0.057,4.073,155.0,151.0,152.0,11.8,1504.7,271.4,-0.9,0.9,2485.071,13.28,754.0,0.316,79.6
2024-01-03T04:42:13,2420,42.8014,5.9826,0.233,0.286,3.651,155.0,152.0,152.0,11.8,1504.7,271.3,-0.9,0.9,2485.402,13.28,772.0,0.369,39.2
2024-01-03T04:45:13,2420,42.8014,5.9826,1.105,0.26,2.79,155.0,151.0,152.0,11.8,1504.7,271.5,-0.8,0.9,2485.261,13.28,768.0,1.135,76.8
2024-01-03T04:48:13,2420,42.8014,5.9826,0.202,0.309,2.852,155.0,151.0,152.0,11.8,1504.7,271.5,-0.8,0.9,2485.852,13.28,760.0,0.369,33.2
2024-01-03T04:51:13,2420,42.8014,5.9826,0.525,0.054,3.816,155.0,151.0,152.0,11.8,1504.7,271.5,-0.8,0.9,2485.382,13.28,776.0,0.528,84.1
2024-01-03T04:54:13,2420,42.8014,5.9826,0.34,0.091,4.046,155.0,151.0,152.0,11.8,1504.7,271.3,-0.8,0.9,2485.482,13.28,768.0,0.352,75.0
2024-01-03T04:57:13,2420,42.8014,5.9826,0.3,0.028,4.059,155.0,151.0,152.0,11.8,1504.7,271.4,-0.9,0.9,2485.458,13.28,781.0,0.301,84.7
2024-01-03T05:03:13,2420,42.8014,5.9826,0.871,-0.463,2.561,155.0,151.0,152.0,11.8,1504.7,271.5,-0.9,0.9,2485.49,13.28,760.0,0.986,118.0
2024-01-03T05:06:13,2420,42.8014,5.9826,0.396,0.06,4.008,154.0,151.0,152.0,11.8,1504.7,271.4,-0.8,0.9,2485.229,13.28,769.0,0.401,81.4
2024-01-03T05:09:13,2420,42.8014,5.9826,0.228,-0.214,2.801,155.0,151.0,152.0,11.7,1504.7,271.3,-0.8,0.9,2485.356,13.28,773.0,0.313,133.2
2024-01-03T05:12:13,2420,42.8014,5.9826,0.489,0.036,3.912,155.0,151.0,152.0,11.8,1504.7,271.4,-0.8,0.9,2485.338,13.28,746.0,0.49,85.8
2024-01-03T05:15:13,2420,42.8014,5.9826,0.351,0.421,3.368,155.0,151.0,152.0,11.8,1504.7,271.4,-0.8,0.9,2485.364,13.28,766.0,0.548,39.8
2024-01-03T05:18:13,2420,42.8014,5.9826,0.594,0.295,3.349,155.0,152.0,152.0,11.8,1504.7,271.4,-0.8,0.9,2485.665,13.28,765.0,0.663,63.6
2024-01-03T05:21:13,2420,42.8014,5.9826,0.532,0.046,3.866,155.0,152.0,152.0,11.8,1504.7,271.3,-0.9,0.9,2485.384,13.28,766.0,0.534,85.1
2024-01-03T05:24:13,2420,42.8014,5.9826,0.762,0.053,3.629,155.0,151.0,152.0,11.8,1504.7,271.4,-0.8,0.9,2485.434,13.28,769.0,0.764,86.0
2024-01-03T05:27:13,2420,42.8014,5.9826,0.271,-0.181,3.696,155.0,151.0,152.0,11.8,1504.7,271.4,-0.8,0.9,2485.38,13.29,792.0,0.326,123.7
2024-01-03T05:30:13,2420,42.8014,5.9826,0.423,-0.209,3.506,155.0,151.0,152.0,11.8,1504.7,271.4,-0.8,0.9,2485.4,13.29,772.0,0.472,116.3
2024-01-03T05:33:13,2420,42.8014,5.9826,0.029,0.544,3.497,155.0,151.0,152.0,11.8,1504.7,271.4,-0.8,0.9,2485.631,13.29,775.0,0.545,3.0
2024-01-03T05:36:13,2420,42.8014,5.9826,0.628,0.038,3.782,155.0,152.0,152.0,11.8,1504.7,271.6,-0.8,0.9,2485.285,13.29,780.0,0.629,86.5
2024-01-03T05:39:13,2420,42.8014,5.9826,0.671,0.045,3.712,155.0,151.0,152.0,11.8,1504.7,271.5,-0.8,0.9,2485.311,13.29,758.0,0.672,86.2
2024-01-03T05:42:13,2420,42.8014,5.9826,0.62,0.159,3.571,155.0,152.0,152.0,11.8,1504.7,271.5,-0.8,0.9,2485.394,13.29,775.0,0.64,75.6
2024-01-03T05:45:13,2420,42.8014,5.9826,0.33,-0.193,3.604,155.0,151.0,152.0,11.8,1504.7,271.4,-0.9,0.8,2485.277,13.29,768.0,0.382,120.3
2024-01-03T05:48:13,2420,42.8014,5.9826,0.679,0.037,3.666,155.0,151.0,152.0,11.8,1504.7,271.4,-0.8,0.9,2485.283,13.29,762.0,0.68,86.9
2024-01-03T05:51:13,2420,42.8014,5.9826,0.472,0.045,3.885,155.0,151.0,152.0,11.8,1504.7,271.4,-0.9,0.9,2485.558,13.29,768.0,0.474,84.6
2024-01-03T05:54:13,2420,42.8014,5.9826,0.132,0.289,2.909,155.0,152.0,152.0,11.8,1504.7,271.6,-0.8,0.9,2485.472,13.29,765.0,0.318,24.5
2024-01-03T05:57:13,2420,42.8014,5.9826,0.207,0.532,2.443,155.0,151.0,152.0,11.8,1504.7,271.5,-0.8,0.9,2485.649,13.29,766.0,0.571,21.3
2024-01-03T06:03:13,2420,42.8014,5.9826,0.281,0.274,2.805,155.0,151.0,152.0,11.8,1504.7,271.5,-0.8,0.9,2485.346,13.29,761.0,0.392,45.7
2024-01-03T06:06:13,2420,42.8014,5.9826,0.336,-0.183,3.628,155.0,152.0,152.0,11.8,1504.7,271.4,-0.8,0.9,2485.482,13.29,765.0,0.383,118.6
2024-01-03T06:09:13,2420,42.8014,5.9826,0.479,0.042,3.924,155.0,152.0,152.0,11.8,1504.7,271.5,-0.9,0.9,2485.45,13.3,771.0,0.481,85.0
2024-01-03T06:12:13,2420,42.8014,5.9826,0.288,0.013,2.351,155.0,152.0,152.0,11.8,1504.7,271.3,-0.9,0.9,2485.414,13.3,780.0,0.288,87.4
2024-01-03T06:15:13,2420,42.8014,5.9826,0.535,0.279,3.373,155.0,151.0,152.0,11.7,1504.7,271.3,-0.8,0.9,2484.98,13.29,757.0,0.603,62.5
2024-01-03T06:18:13,2420,42.8014,5.9826,0.454,-0.225,2.605,155.0,152.0,152.0,11.8,1504.7,271.4,-0.8,0.9,2485.255,13.29,765.0,0.507,116.4
2024-01-03T06:21:13,2420,42.8014,5.9826,0.791,-0.216,3.167,155.0,151.0,152.0,11.8,1504.7,271.4,-0.8,0.9,2485.797,13.29,766.0,0.82,105.3
2024-01-03T06:24:13,2420,42.8014,5.9826,0.588,-0.234,3.34,155.0,151.0,152.0,11.8,1504.7,271.4,-0.8,0.9,2485.394,13.29,778.0,0.633,111.7
2024-01-03T06:27:13,2420,42.8014,5.9826,0.517,-0.221,3.393,155.0,151.0,152.0,11.8,1504.7,271.5,-0.8,0.9,2485.406,13.28,787.0,0.562,113.1
2024-01-03T06:30:13,2420,42.8014,5.9826,0.404,0.037,3.107,155.0,151.0,152.0,11.8,1504.7,271.4,-0.8,0.9,2485.097,13.28,769.0,0.406,84.8
2024-01-03T06:33:13,2420,42.8014,5.9826,0.506,0.036,3.854,155.0,151.0,152.0,11.8,1504.7,271.4,-0.8,0.9,2485.488,13.29,780.0,0.507,85.9
2024-01-03T06:36:13,2420,42.8014,5.9826,0.42,-0.303,3.285,155.0,152.0,152.0,11.7,1504.7,271.7,-0.8,0.9,2485.534,13.29,780.0,0.518,125.8
2024-01-03T06:39:13,2420,42.8014,5.9826,0.122,-0.192,3.771,155.0,151.0,152.0,11.8,1504.7,271.5,-0.8,0.9,2485.496,13.28,771.0,0.227,147.6
2024-01-03T06:42:13,2420,42.8014,5.9826,0.608,-0.207,3.363,155.0,152.0,152.0,11.8,1504.7,271.6,-0.8,0.9,2485.386,13.28,769.0,0.642,108.8
2024-01-03T06:45:13,2420,42.8014,5.9826,0.56,0.267,3.383,155.0,151.0,152.0,11.8,1504.7,271.5,-0.8,0.9,2485.205,13.28,773.0,0.62,64.5
2024-01-03T06:48:13,2420,42.8014,5.9826,0.764,0.027,3.555,155.0,151.0,152.0,11.8,1504.7,271.5,-0.8,0.9,2485.51,13.28,773.0,0.764,88.0
2024-01-03T06:51:13,2420,42.8014,5.9826,0.553,0.042,3.763,155.0,151.0,152.0,11.8,1504.7,271.5,-0.8,0.9,2485.362,13.29,773.0,0.555,85.7
2024-01-03T06:54:13,2420,42.8014,5.9826,0.439,0.042,3.956,155.0,152.0,152.0,11.8,1504.7,271.3,-0.8,0.9,2485.293,13.29,764.0,0.441,84.5
2024-01-03T06:57:13,2420,42.8014,5.9826,0.434,0.043,3.949,155.0,151.0,152.0,11.8,1504.7,271.5,-0.8,0.9,2485.279,13.29,761.0,0.436,84.3
2024-01-03T07:03:13,2420,42.8014,5.9826,0.552,0.042,3.776,155.0,151.0,152.0,11.8,1504.7,271.3,-0.8,0.9,2485.249,13.29,761.0,0.554,85.6
2024-01-03T07:06:13,2420,42.8014,5.9826,0.569,0.263,3.319,155.0,151.0,152.0,11.8,1504.7,271.4,-0.8,0.9,2485.629,13.29,774.0,0.627,65.2
2024-01-03T07:09:13,2420,42.8014,5.9826,0.463,0.047,3.819,155.0,151.0,152.0,11.8,1504.7,271.4,-0.8,0.9,2485.277,13.29,753.0,0.465,84.2
2024-01-03T07:12:13,2420,42.8014,5.9826,0.525,0.034,3.858,155.0,151.0,152.0,11.8,1504.7,271.4,-0.8,0.9,2485.211,13.29,773.0,0.526,86.3
2024-01-03T07:15:13,2420,42.8014,5.9826,0.672,-0.215,3.231,155.0,152.0,152.0,11.7,1504.7,271.4,-0.8,0.9,2485.368,13.3,759.0,0.705,107.7
2024-01-03T07:18:13,2420,42.8014,5.9826,0.42,-0.176,3.517,155.0,151.0,152.0,11.7,1504.7,271.4,-0.8,0.9,2485.45,13.29,763.0,0.455,112.7
2024-01-03T07:21:13,2420,42.8014,5.9826,0.53,0.026,3.852,155.0,151.0,152.0,11.7,1504.7,271.4,-0.8,0.9,2485.687,13.29,755.0,0.531,87.2
2024-01-03T07:24:13,2420,42.8014,5.9826,0.758,0.019,2.72,155.0,151.0,152.0,11.7,1504.7,271.6,-0.8,0.9,2485.155,13.29,766.0,0.758,88.6
2024-01-03T07:27:13,2420,42.8014,5.9826,0.516,0.042,3.873,155.0,151.0,152.0,11.8,1504.7,271.5,-0.8,0.9,2485.287,13.3,774.0,0.518,85.3
2024-01-03T07:30:13,2420,42.8014,5.9826,0.581,-0.204,3.361,155.0,151.0,152.0,11.8,1504.7,271.4,-0.9,0.9,2485.36,13.3,777.0,0.616,109.3
2024-01-03T07:33:12,2420,42.8014,5.9826,0.659,0.265,3.245,155.0,151.0,152.0,11.7,1504.7,271.6,-0.8,0.9,2485.33,13.3,776.0,0.71,68.1
2024-01-03T07:36:13,2420,42.8014,5.9826,0.419,0.285,3.534,155.0,151.0,152.0,11.8,1504.7,271.3,-0.9,0.9,2485.639,13.3,768.0,0.507,55.8
2024-01-03T07:39:13,2420,42.8014,5.9826,0.727,0.041,3.633,155.0,151.0,152.0,11.7,1504.7,271.4,-0.8,0.9,2485.215,13.3,762.0,0.728,86.8
2024-01-03T07:42:13,2420,42.8014,5.9826,0.827,0.277,3.115,155.0,152.0,152.0,11.7,1504.7,271.4,-0.8,0.9,2485.291,13.3,759.0,0.872,71.5
2024-01-03T07:45:13,2420,42.8014,5.9826,0.468,-0.202,3.496,155.0,152.0,152.0,11.8,1504.8,271.6,-0.8,0.9,2485.516,13.31,744.0,0.51,113.3
2024-01-03T07:48:13,2420,42.8014,5.9826,0.596,0.045,3.783,155.0,152.0,152.0,11.8,1504.7,271.3,-0.8,0.9,2485.625,13.3,773.0,0.598,85.7
2024-01-03T07:51:13,2420,42.8014,5.9826,0.146,0.557,3.401,155.0,152.0,152.0,11.8,1504.7,271.5,-0.8,0.9,2485.143,13.29,763.0,0.576,14.7
2024-01-03T07:54:13,2420,42.8014,5.9826,0.669,-0.069,3.46,155.0,152.0,152.0,11.8,1504.7,271.5,-0.9,0.9,2485.297,13.29,769.0,0.672,95.9
2024-01-03T07:57:13,2420,42.8014,5.9826,1.012,0.045,3.321,155.0,151.0,152.0,11.8,1504.7,271.4,-0.8,0.9,2485.362,13.3,780.0,1.013,87.5
2024-01-03T08:03:13,2420,42.8014,5.9826,0.667,0.26,3.252,155.0,151.0,152.0,11.7,1504.7,271.4,-0.9,0.9,2485.348,13.29,761.0,0.716,68.7
2024-01-03T08:06:13,2420,42.8014,5.9826,0.656,0.051,3.741,155.0,152.0,152.0,11.8,1504.7,271.3,-0.8,0.9,2485.552,13.29,783.0,0.658,85.6
2024-01-03T08:09:13,2420,42.8014,5.9826,0.657,0.036,3.704,155.0,151.0,152.0,11.8,1504.7,271.4,-0.8,0.9,2485.637,13.29,775.0,0.658,86.9
2024-01-03T08:12:13,2420,42.8014,5.9826,0.324,0.548,3.202,155.0,151.0,152.0,11.8,1504.7,271.5,-0.8,0.9,2485.442,13.29,773.0,0.637,30.6
2024-01-03T08:15:13,2420,42.8014,5.9826,0.37,-0.207,3.544,155.0,151.0,152.0,11.8,1504.7,271.5,-0.8,0.9,2485.388,13.3,767.0,0.424,119.2
2024-01-03T08:18:13,2420,42.8014,5.9826,0.6,0.052,3.744,155.0,151.0,152.0,11.8,1504.7,271.4,-0.8,0.9,2485.637,13.3,772.0,0.602,85.1
2024-01-03T08:21:13,2420,42.8014,5.9826,1.036,0.007,2.427,155.0,151.0,152.0,11.7,1504.7,271.5,-0.8,0.9,2485.659,13.3,763.0,1.036,89.6
2024-01-03T08:24:13,2420,42.8014,5.9826,0.241,0.76,2.808,155.0,151.0,152.0,11.8,1504.8,271.4,-0.8,0.9,2485.089,13.31,779.0,0.797,17.6
2024-01-03T08:27:13,2420,42.8014,5.9826,0.609,0.064,3.795,155.0,151.0,152.0,11.8,1504.8,271.5,-0.8,0.9,2485.603,13.31,765.0,0.612,84.0
2024-01-03T08:30:13,2420,42.8014,5.9826,0.454,0.295,3.484,155.0,151.0,152.0,11.8,1504.7,271.5,-0.8,0.9,2485.568,13.3,766.0,0.541,57.0
2024-01-03T08:33:13,2420,42.8014,5.9826,0.747,0.028,3.623,155.0,152.0,152.0,11.8,1504.8,271.5,-0.8,0.8,2485.506,13.31,775.0,0.748,87.9
2024-01-03T08:36:13,2420,42.8014,5.9826,0.403,0.052,3.968,155.0,152.0,152.0,11.8,1504.8,271.3,-0.9,0.9,2485.701,13.31,771.0,0.406,82.7
2024-01-03T08:39:13,2420,42.8014,5.9826,0.444,0.057,3.929,155.0,151.0,152.0,11.8,1504.8,271.5,-0.8,0.9,2485.183,13.31,758.0,0.448,82.7
2024-01-03T08:42:13,2420,42.8014,5.9826,0.458,0.281,3.469,155.0,152.0,152.0,11.8,1504.8,271.4,-0.9,0.8,2485.372,13.31,765.0,0.537,58.5
2024-01-03T08:45:13,2420,42.8014,5.9826,0.694,0.029,3.72,155.0,151.0,152.0,11.8,1504.7,271.6,-0.8,0.9,2485.422,13.3,765.0,0.694,87.6
2024-01-03T08:48:13,2420,42.8014,5.9826,0.556,0.04,3.833,155.0,151.0,152.0,11.8,1504.7,271.4,-0.8,0.9,2485.402,13.3,769.0,0.557,85.9
2024-01-03T08:51:13,2420,42.8014,5.9826,0.227,0.301,3.673,155.0,151.0,152.0,11.8,1504.7,271.4,-0.9,0.9,2485.667,13.3,861.0,0.377,37.0
2024-01-03T08:54:13,2420,42.8014,5.9826,0.045,-0.418,3.461,155.0,151.0,152.0,11.8,1504.7,271.4,-0.8,0.9,2485.637,13.3,781.0,0.42,173.9
2024-01-03T08:57:13,2420,42.8014,5.9826,0.167,-0.443,3.331,155.0,151.0,152.0,11.8,1504.7,271.5,-0.8,0.9,2485.488,13.3,753.0,0.473,159.3
2024-01-03T09:03:13,2420,42.8014,5.9826,0.14,0.794,2.937,155.0,151.0,152.0,11.8,1504.7,271.3,-0.8,0.9,2485.613,13.29,776.0,0.806,10.0
2024-01-03T09:06:13,2420,42.8014,5.9826,0.397,-0.203,3.527,155.0,152.0,152.0,11.7,1504.7,271.3,-0.8,0.9,2485.673,13.3,758.0,0.446,117.1